Location: Gleizolles
(44.4833°N, 6.7667°E)
Time: 07:34:31
(UTC+00:00)

N. Korean satellite - Visible Passes

Search period start: 07 December 2021 00:00
Search period end: 17 December 2021 00:00
Orbit: 446 x 495 km, 97.3° (Epoch: 06 December)

Date Brightness Start Highest point End Pass type
(mag) Time Alt. Az. Time Alt. Az. Time Alt. Az.
07 Dec 6.2 04:59:07 10° N 05:02:30 76° WNW 05:05:52 10° SSW visible
07 Dec 10.0 17:10:04 10° WSW 17:11:19 12° W 17:12:34 10° WNW visible
08 Dec 7.6 04:30:42 10° NNE 04:33:56 42° E 04:37:09 10° S visible
08 Dec 8.3 06:05:18 10° NW 06:06:46 12° WNW 06:08:13 10° W visible
08 Dec 9.1 16:39:38 10° SSW 16:42:34 25° W 16:45:29 10° NW visible
09 Dec 9.2 04:02:48 10° NE 04:05:15 18° E 04:07:42 10° SE visible
09 Dec 7.4 05:35:36 10° NNW 05:38:27 25° WNW 05:41:17 10° SW visible
10 Dec 6.3 05:06:40 10° N 05:10:00 59° WNW 05:13:21 10° SSW visible
11 Dec 7.1 04:41:37 53° ESE 04:41:37 53° ESE 04:44:47 10° S visible
11 Dec8.806:15:44W06:15:44W06:11:44NNWvisible
11 Dec 9.5 16:47:29 10° SW 16:50:07 20° W 16:52:43 10° NW visible
12 Dec 8.9 04:13:17 22° ESE 04:13:17 22° ESE 04:15:32 10° SSE visible
12 Dec 8.2 05:47:24 16° WSW 05:47:24 16° WSW 05:48:29 10° WSW visible
13 Dec 7.6 05:18:56 27° SW 05:18:56 27° SW 05:20:42 10° SSW visible
14 Dec 7.8 04:50:25 30° S 04:50:25 30° S 04:52:17 10° S visible
14 Dec 9.6 16:55:20 10° SW 16:57:35 16° W 16:59:49 10° NW visible
15 Dec 8.9 04:21:50 19° SE 04:21:50 19° SE 04:23:13 10° SSE visible
15 Dec8.905:55:55WSW05:55:55WSW05:48:51Nvisible
15 Dec 8.3 16:25:38 10° SSW 16:28:50 35° W 16:32:01 10° NNW visible
16 Dec 8.5 05:27:18 15° SW 05:27:18 15° SW 05:27:58 10° SW visible
